Vorticity
11 11 8 7 9 14 8 15 21 18 21 17 17 29 19 12 25 9 16 5 15 11 5 27 33 7 4 16 3 6 4 8 9 8 4 6 5 3 2 2 3 3 2 0
5 7 11 10 8 7 13 18 14 17 17 20 18 25 19 11 13 33 5 38 15 6 4 -48 32 43 -19 34 1 5 4 6 8 10 8 3 5 5 3 3 3 3 2 1
4 8 9 13 6 8 10 12 18 19 15 19 20 31 16 3 11 31 31 12 16 9 8 -30 16 26 -4 13 26 -3 6 2 6 7 8 9 6 6 8 6 5 4 3 2
6 6 8 8 14 4 12 12 12 16 15 9 12 19 20 -9 8 13 29 10 15 14 28 -15 -5 20 4 2 -8 15 -5 0 4 4 10 9 10 6 5 6 3 3 4 3
5 6 6 7 10 13 11 9 14 18 17 17 10 12 22 10 7 8 11 23 6 52 9 29 8 -2 24 7 -16 32 42 -10 2 6 7 3 7 7 6 6 7 7 6 6
7 5 8 6 7 11 12 9 11 9 22 18 15 16 12 13 7 7 16 16 4 12 35 7 -9 24 33 46 46 -1 -28 8 15 13 6 -5 3 3 4 4 3 5 7 7
5 8 6 6 6 10 16 17 9 13 13 20 10 18 11 9 6 6 4 12 9 -12 21 1 8 -2 17 2 32 40 59 4 42 11 17 6 -0 -4 -1 6 5 4 4 4
13 10 7 7 6 4 6 8 9 4 8 8 19 17 16 14 12 7 6 8 15 5 5 2 -5 -10 -1 -3 1 1 18 26 -15 -13 72 8 1 1 -1 -8 3 -13 2 10
13 8 8 5 9 4 9 7 7 12 7 13 13 10 21 18 9 8 12 9 7 26 -11 3 13 -2 10 6 13 1 -9 3 11 32 8 8 43 -1 6 3 -10 29 17 -4
10 11 8 10 7 9 4 8 8 8 9 1 14 8 9 7 12 24 11 9 9 7 14 9 9 16 6 6 5 16 8 2 1 13 3 -3 39 -18 28 -2 33 39 18 49
11 13 13 12 9 6 13 6 7 4 3 2 8 3 5 9 12 7 9 21 22 14 8 9 12 4 1 1 9 7 10 11 9 4 3 16 6 12 10 -3 7 7 9 11
13 12 19 9 9 6 13 7 5 7 2 5 1 3 0 5 9 18 15 3 1 2 8 20 26 22 15 12 6 6 7 9 9 8 3 7 7 10 16 13 16 5 9 8
12 14 15 11 8 16 10 7 6 1 -0 7 -3 -1 8 -1 3 4 2 3 18 15 7 3 2 2 2 7 18 21 17 10 9 5 8 10 9 6 6 4 17 6 5 3
12 13 12 3 18 15 8 5 3 2 2 6 -1 1 9 3 4 6 5 1 1 8 9 9 12 7 4 5 6 5 4 11 19 23 18 10 7 8 8 7 8 5 4 -6
13 20 16 20 9 18 8 5 2 1 3 0 11 6 7 4 4 7 7 7 8 7 9 8 5 6 9 12 9 9 9 6 7 7 8 9 18 24 20 9 7 6 30 7
11 9 12 15 5 8 4 2 4 4 -3 3 1 5 2 0 4 10 8 6 6 2 6 6 6 5 9 10 9 8 8 7 7 8 8 5 5 7 12 23 27 14 11 14
4 2 4 5 4 7 9 4 -1 7 8 8 4 1 3 10 8 6 7 7 7 6 5 3 2 4 4 3 4 5 6 6 7 8 5 6 8 6 4 10 17 26 21 17
6 5 2 1 3 2 4 8 5 2 7 6 10 8 7 6 8 7 3 3 5 6 5 7 10 9 8 11 11 11 13 13 11 8 8 10 8 7 8 5 7 12 15 17
1 3 6 7 4 3 0 2 7 6 5 4 4 7 5 8 6 10 11 11 7 4 6 5 5 5 6 6 7 8 8 7 10 16 13 8 10 10 8 9 7 5 10 10
11 4 5 6 4 6 8 5 6 5 5 7 6 4 5 8 8 8 9 9 8 9 8 9 9 6 2 3 7 7 9 9 8 7 6 11 13 8 9 10 8 8 5 6
3 5 4 2 2 2 4 5 6 7 7 4 8 6 5 5 6 3 2 4 9 8 7 7 7 6 5 6 6 5 6 8 9 11 7 8 6 7 13 11 14 11 9 9
8 5 3 4 4 3 8 4 6 7 7 6 7 9 8 8 7 7 8 8 7 6 4 7 7 5 6 6 5 6 7 5 7 9 12 11 8 6 7 6 11 10 13 10
4 5 6 8 7 6 7 8 9 9 8 7 7 7 7 7 8 10 10 7 7 6 8 7 7 8 7 6 7 7 6 5 5 6 5 5 13 15 8 4 9 8 11 15
-0 8 13 7 6 7 11 10 9 9 9 9 11 10 10 12 11 13 14 15 16 16 17 17 16 14 13 11 10 11 10 7 7 6 6 6 7 9 9 11 11 12 11 9
12 10 6 8 12 10 12 12 12 12 12 13 12 10 12 16 19 21 21 23 29 36 36 37 35 34 37 33 33 38 40 31 22 12 7 6 7 7 8 12 12 14 10 12
7 7 10 11 12 14 11 13 14 15 16 18 19 24 30 28 39 49 49 26 17 8 16 17 20 28 31 26 25 31 51 50 35 36 35 33 32 22 13 18 23 15 13 13
Height
5718 5710 5702 5694 5687 5679 5671 5665 5659 5654 5652 5648 5648 5650 5656 5663 5669 5677 5683 5688 5694 5700 5709 5713 5717 5728 5735 5743 5749 5754 5761 5767 5774 5780 5785 5790 5795 5799 5801 5804 5807 5809 5812 5815
5719 5711 5702 5695 5688 5681 5673 5666 5660 5656 5652 5649 5647 5651 5657 5665 5670 5675 5678 5685 5692 5698 5700 5710 5710 5717 5718 5731 5740 5746 5752 5758 5764 5770 5776 5781 5785 5789 5793 5796 5800 5803 5806 5808
5718 5712 5704 5697 5691 5686 5676 5669 5663 5659 5655 5651 5650 5654 5661 5669 5673 5675 5677 5685 5689 5697 5699 5708 5711 5713 5714 5713 5728 5738 5746 5752 5756 5760 5766 5772 5778 5783 5788 5792 5795 5797 5798 5800
5718 5712 5706 5700 5693 5686 5679 5672 5667 5663 5659 5658 5656 5658 5663 5668 5672 5675 5679 5684 5688 5693 5697 5702 5711 5707 5714 5711 5715 5728 5738 5745 5750 5754 5759 5764 5770 5773 5777 5781 5784 5787 5790 5793
5718 5713 5708 5701 5694 5687 5683 5676 5671 5667 5664 5663 5663 5664 5666 5669 5672 5675 5677 5681 5687 5689 5692 5701 5706 5706 5709 5708 5712 5720 5729 5736 5743 5747 5752 5755 5759 5763 5768 5772 5775 5779 5782 5785
5717 5711 5708 5700 5696 5690 5685 5681 5676 5672 5669 5667 5667 5669 5669 5672 5675 5676 5678 5683 5686 5689 5693 5698 5703 5704 5705 5708 5713 5716 5721 5726 5732 5737 5742 5747 5750 5752 5756 5759 5763 5766 5770 5773
5717 5711 5706 5703 5699 5694 5690 5686 5681 5678 5674 5672 5670 5672 5672 5674 5677 5679 5680 5684 5686 5689 5692 5694 5702 5704 5704 5706 5709 5713 5717 5720 5723 5726 5731 5736 5739 5743 5747 5749 5752 5754 5756 5759
5714 5709 5704 5701 5698 5693 5689 5686 5681 5678 5677 5677 5675 5674 5675 5676 5679 5680 5681 5682 5685 5687 5692 5695 5699 5700 5703 5705 5707 5712 5714 5716 5717 5716 5723 5725 5729 5732 5735 5737 5741 5742 5745 5749
5711 5709 5703 5699 5697 5696 5692 5688 5686 5684 5681 5680 5679 5679 5678 5678 5679 5681 5683 5684 5684 5684 5687 5691 5692 5694 5697 5700 5703 5706 5710 5709 5709 5711 5713 5718 5720 5722 5723 5724 5726 5730 5733 5737
5710 5708 5702 5700 5696 5696 5692 5692 5688 5687 5684 5680 5680 5681 5680 5680 5680 5680 5681 5683 5683 5682 5681 5684 5684 5687 5688 5689 5692 5694 5695 5698 5699 5701 5703 5707 5709 5712 5712 5714 5719 5720 5723 5722
5703 5705 5702 5696 5695 5693 5693 5690 5689 5687 5686 5684 5682 5683 5681 5680 5680 5679 5680 5680 5679 5679 5679 5678 5678 5677 5678 5679 5681 5684 5688 5689 5690 5691 5691 5693 5698 5699 5701 5702 5705 5707 5708 5707
5699 5699 5699 5696 5692 5690 5689 5689 5688 5686 5685 5683 5681 5681 5680 5681 5680 5681 5681 5680 5679 5677 5675 5673 5672 5671 5669 5669 5670 5672 5674 5677 5679 5679 5682 5685 5685 5686 5687 5690 5690 5691 5693 5695
5695 5695 5693 5694 5692 5688 5686 5686 5685 5684 5682 5682 5681 5680 5676 5678 5678 5676 5675 5674 5674 5674 5673 5671 5667 5665 5663 5663 5662 5661 5661 5662 5663 5666 5669 5670 5671 5673 5674 5675 5677 5678 5678 5680
5692 5693 5689 5687 5687 5687 5684 5682 5681 5681 5683 5684 5681 5678 5673 5675 5672 5671 5668 5667 5665 5664 5663 5662 5662 5661 5658 5656 5654 5653 5653 5654 5654 5655 5655 5655 5655 5658 5660 5662 5664 5664 5664 5666
5689 5689 5686 5684 5681 5683 5682 5680 5677 5677 5678 5678 5677 5675 5674 5668 5668 5666 5663 5659 5657 5656 5653 5652 5652 5651 5651 5648 5647 5646 5645 5644 5642 5642 5642 5642 5642 5642 5643 5645 5648 5651 5653 5653
5685 5684 5684 5683 5679 5680 5680 5675 5675 5675 5673 5670 5668 5666 5665 5663 5660 5658 5657 5653 5649 5646 5644 5644 5642 5640 5638 5636 5635 5633 5631 5629 5629 5628 5628 5628 5629 5629 5628 5629 5628 5630 5634 5636
5681 5677 5676 5679 5674 5674 5673 5671 5670 5667 5666 5663 5661 5659 5655 5653 5650 5648 5644 5641 5639 5635 5633 5632 5631 5629 5626 5624 5622 5620 5618 5617 5615 5614 5613 5613 5614 5614 5614 5614 5614 5614 5615 5616
5679 5675 5672 5670 5669 5667 5664 5664 5661 5659 5657 5654 5652 5650 5646 5641 5638 5635 5631 5629 5626 5622 5619 5617 5616 5614 5612 5611 5608 5607 5605 5603 5601 5600 5599 5599 5599 5599 5599 5600 5599 5599 5598 5599
5672 5667 5663 5660 5657 5656 5654 5652 5649 5645 5643 5637 5635 5632 5629 5627 5624 5619 5615 5611 5608 5606 5604 5601 5598 5598 5596 5594 5592 5590 5590 5588 5587 5586 5584 5583 5583 5584 5584 5584 5585 5585 5585 5584
5665 5661 5657 5653 5649 5646 5643 5639 5634 5630 5628 5624 5619 5616 5613 5611 5609 5608 5603 5599 5594 5588 5583 5583 5581 5579 5576 5574 5571 5571 5572 5572 5570 5568 5567 5566 5567 5568 5568 5568 5568 5568 5569 5571
5653 5648 5645 5641 5635 5634 5629 5625 5620 5614 5615 5605 5601 5597 5593 5590 5586 5585 5582 5582 5577 5575 5570 5563 5559 5557 5555 5552 5547 5549 5549 5551 5549 5550 5550 5549 5549 5549 5550 5553 5553 5554 5554 5555
5641 5636 5632 5626 5621 5619 5614 5610 5604 5598 5591 5589 5584 5579 5575 5570 5565 5561 5558 5554 5551 5546 5543 5540 5539 5537 5534 5528 5522 5522 5524 5523 5523 5526 5529 5530 5530 5531 5532 5533 5535 5537 5539 5539
5626 5622 5617 5612 5605 5601 5596 5590 5585 5579 5573 5567 5562 5557 5552 5548 5544 5539 5536 5532 5528 5524 5519 5513 5511 5511 5508 5502 5497 5497 5497 5493 5493 5497 5502 5505 5508 5510 5512 5513 5515 5518 5521 5523
5612 5606 5600 5593 5586 5579 5575 5569 5563 5556 5550 5544 5538 5533 5528 5524 5519 5515 5509 5506 5501 5496 5492 5487 5483 5480 5478 5472 5469 5466 5467 5465 5464 5468 5472 5475 5480 5486 5491 5493 5495 5498 5503 5506
5596 5589 5582 5574 5566 5557 5552 5546 5539 5532 5527 5522 5516 5510 5505 5500 5493 5488 5483 5478 5472 5466 5462 5456 5452 5449 5446 5441 5439 5435 5434 5433 5435 5438 5444 5449 5453 5457 5465 5470 5475 5478 5483 5488
5577 5569 5561 5554 5547 5539 5531 5524 5517 5511 5505 5500 5497 5489 5482 5480 5474 5469 5464 5459 5454 5449 5443 5438 5432 5427 5424 5420 5416 5412 5407 5405 5405 5408 5413 5419 5424 5431 5438 5445 5452 5458 5463 5469